This is the latest recevied weather packets stored in our database for station/object N9EA. If no packets are shown the sender has not sent any weather packets the latest 10 day(s).
| Time | Temp. | Humidity | Pressure | Rain* | Wind** | Luminosity | Snow |
|---|---|---|---|---|---|---|---|
| 1777697943 | 6.67° C | 69% | 1018.1 hPa | 0 mm | - | 0 W/m² | - |
| 1777697639 | 6.67° C | 70% | 1018.3 hPa | 0 mm | - | 0 W/m² | - |
| 1777697336 | 6.67° C | 70% | 1018.1 hPa | 0 mm | - | 0 W/m² | - |
| 1777697032 | 6.11° C | 70% | 1018.2 hPa | 0 mm | - | 0 W/m² | - |
| 1777696730 | 5° C | 74% | 1018 hPa | 0 mm | - | 0 W/m² | - |
| 1777696427 | 5° C | 74% | 1017.9 hPa | 0 mm | - | 0 W/m² | - |
| 1777696126 | 5° C | 74% | 1018 hPa | 0 mm | - | 0 W/m² | - |
| 1777695824 | 5° C | 73% | 1017.8 hPa | 0 mm | - | 0 W/m² | - |
| 1777695521 | 5.56° C | 72% | 1017.8 hPa | 0 mm | - | 0 W/m² | - |
| 1777695218 | 5.56° C | 72% | 1017.6 hPa | 0 mm | - | 0 W/m² | - |
| 1777694916 | 5.56° C | 72% | 1017.7 hPa | 0 mm | - | 0 W/m² | - |
| 1777694612 | 5.56° C | 71% | 1017.7 hPa | 0 mm | - | 0 W/m² | - |
| 1777694308 | 6.11° C | 70% | 1017.7 hPa | 0 mm | - | 0 W/m² | - |
| 1777694005 | 6.11° C | 69% | 1017.8 hPa | 0 mm | - | 0 W/m² | - |
| 1777693703 | 6.11° C | 69% | 1017.8 hPa | 0 mm | - | 0 W/m² | - |
| 1777693401 | 6.67° C | 69% | 1017.6 hPa | 0 mm | - | 0 W/m² | - |
| 1777693099 | 6.11° C | 68% | 1017.9 hPa | 0 mm | - | 0 W/m² | - |
| 1777692796 | 6.67° C | 69% | 1017.7 hPa | 0 mm | - | 0 W/m² | - |
| 1777692493 | 6.67° C | 69% | 1017.6 hPa | 0 mm | - | 0 W/m² | - |
| 1777692189 | 6.67° C | 69% | 1017.5 hPa | 0 mm | - | 0 W/m² | - |
| 1777691887 | 6.67° C | 68% | 1017.6 hPa | 0 mm | - | 0 W/m² | - |
| 1777691585 | 6.67° C | 67% | 1017.4 hPa | 0 mm | - | 0 W/m² | - |
| 1777691283 | 7.22° C | 67% | 1017.4 hPa | 0 mm | - | 0 W/m² | - |
| 1777690981 | 7.22° C | 67% | 1017.5 hPa | 0 mm | - | 0 W/m² | - |
| 1777690678 | 7.22° C | 66% | 1017.5 hPa | 0 mm | - | 0 W/m² | - |
* Rain latest hour (hover to see other rain measurements)
** Current wind speed in m/s (hover to see current wind gust speed)